Location: Piotrkow Trybunalski
(51.4000°N, 19.6830°E)
Time: 17:28:26
(UTC+01:00)

A-11 Canister half - Visible Passes

Search period start: 11 December 2023 00:00
Search period end: 21 December 2023 00:00
Orbit: 1514 x 1686 km, 47.2° (Epoch: 10 December)

Date Brightness Start Highest point End Pass type
(mag) Time Alt. Az. Time Alt. Az. Time Alt. Az.
11 Dec 11.2 01:01:37 12° E 01:01:37 12° E 01:02:09 10° E visible
11 Dec 9.7 02:59:50 45° SE 02:59:50 45° SE 03:06:35 10° ESE visible
11 Dec 9.8 04:58:03 28° WSW 05:00:30 31° SW 05:08:56 10° SSE visible
12 Dec 10.0 02:38:23 35° SE 02:38:23 35° SE 02:43:39 10° ESE visible
12 Dec 9.7 04:36:36 32° SW 04:37:36 33° SW 04:46:10 10° SSE visible
13 Dec 10.4 02:16:59 26° SE 02:16:59 26° SE 02:20:42 10° ESE visible
13 Dec 9.7 04:15:12 34° SSW 04:15:12 34° SSW 04:23:25 10° SSE visible
14 Dec 10.8 01:55:37 18° ESE 01:55:37 18° ESE 01:57:45 10° ESE visible
14 Dec 9.9 03:53:49 33° SSW 03:53:49 33° SSW 04:00:37 10° SSE visible
14 Dec 10.6 05:52:05 10° WSW 05:54:25 11° WSW 05:56:47 10° SW visible
15 Dec 11.1 01:34:17 12° ESE 01:34:17 12° ESE 01:34:47 10° ESE visible
15 Dec 10.1 03:32:30 29° S 03:32:30 29° S 03:37:48 10° SSE visible
15 Dec 10.6 05:30:44 12° WSW 05:31:36 12° WSW 05:34:59 10° SW visible
16 Dec 10.4 03:11:13 24° SSE 03:11:13 24° SSE 03:15:00 10° SSE visible
16 Dec 10.6 05:09:27 13° SW 05:09:27 13° SW 05:12:54 10° SSW visible
16 Dec 10.9 20:22:21 10° SSW 20:23:08 13° SSW 20:23:08 13° SSW visible
17 Dec 10.7 02:49:58 18° SSE 02:49:58 18° SSE 02:52:10 10° SSE visible
17 Dec 10.6 04:48:12 13° SW 04:48:12 13° SW 04:50:40 10° SSW visible
17 Dec 10.7 18:03:39 10° SE 18:03:39 10° SE 18:03:39 10° SE visible
17 Dec 10.5 19:59:36 10° SSW 20:01:53 18° SSW 20:01:53 18° SSW visible
18 Dec 11.0 02:28:44 12° SSE 02:28:44 12° SSE 02:29:19 10° SSE visible
18 Dec 10.7 04:26:58 12° SSW 04:26:58 12° SSW 04:28:19 10° SSW visible
18 Dec 10.2 19:36:51 10° SSW 19:40:36 24° S 19:40:36 24° S visible
19 Dec 10.9 04:05:46 10° SSW 04:05:46 10° SSW 04:05:55 10° SSW visible
19 Dec 10.0 19:14:08 10° SSW 19:19:16 28° S 19:19:16 28° S visible
19 Dec 10.9 21:16:31 10° WSW 21:17:30 14° WSW 21:17:30 14° WSW visible
20 Dec 9.8 18:51:26 10° SSW 18:57:54 30° SSE 18:57:54 30° SSE visible
20 Dec 10.6 20:53:39 10° WSW 20:56:08 21° SW 20:56:08 21° SW visible
